| time (UTC) | temp C | wind direction | speed KPH | gust KPH | rain 1hr cm | rain 24hr cm | rain mn cm | humidity % | barometer mb |
| 20260507211032 | 27 | 32 | 11.3 | 22.5 | 0.00 | 0.00 | 0.00 | 76 | 1014.7 |
| 20260507210533 | 28 | 336 | 11.3 | 25.7 | 0.00 | 0.00 | 0.00 | 76 | 1014.7 |
| 20260507210048 | 27 | 36 | 12.9 | 25.7 | 0.00 | 0.00 | 0.00 | 76 | 1014.8 |
| 20260507205529 | 28 | 350 | 12.9 | 22.5 | 0.00 | 0.00 | 0.00 | 76 | 1014.8 |
| 20260507205031 | 28 | 47 | 11.3 | 22.5 | 0.00 | 0.00 | 0.00 | 76 | 1014.8 |
| 20260507204545 | 28 | 15 | 12.9 | 24.1 | 0.00 | 0.00 | 0.00 | 76 | 1014.7 |
| 20260507204030 | 28 | 24 | 14.5 | 24.1 | 0.00 | 0.00 | 0.00 | 76 | 1014.7 |
| 20260507203531 | 28 | 20 | 12.9 | 25.7 | 0.00 | 0.00 | 0.00 | 76 | 1014.6 |
| 20260507203044 | 28 | 338 | 12.9 | 25.7 | 0.00 | 0.00 | 0.00 | 76 | 1014.7 |
| 20260507202530 | 28 | 17 | 14.5 | 25.7 | 0.00 | 0.00 | 0.00 | 75 | 1014.7 |
| 20260507202031 | 28 | 352 | 16.1 | 25.7 | 0.00 | 0.00 | 0.00 | 75 | 1014.8 |
| 20260507201544 | 28 | 352 | 16.1 | 25.7 | 0.00 | 0.00 | 0.00 | 75 | 1014.8 |
| 20260507201030 | 28 | 32 | 14.5 | 25.7 | 0.00 | 0.00 | 0.00 | 74 | 1014.8 |
| 20260507200530 | 28 | 5 | 12.9 | 25.7 | 0.00 | 0.00 | 0.00 | 74 | 1014.8 |
| 20260507200047 | 28 | 13 | 17.7 | 27.4 | 0.00 | 0.00 | 0.00 | 73 | 1014.8 |
| 20260507195529 | 28 | 360 | 16.1 | 27.4 | 0.00 | 0.00 | 0.00 | 73 | 1014.9 |
| 20260507195029 | 28 | 13 | 16.1 | 27.4 | 0.00 | 0.00 | 0.00 | 74 | 1015.0 |
| 20260507194611 | 28 | 20 | 14.5 | 25.7 | 0.00 | 0.00 | 0.00 | 74 | 1015.1 |
| 20260507194029 | 28 | 14 | 14.5 | 25.7 | 0.00 | 0.00 | 0.00 | 74 | 1015.1 |
| 20260507193530 | 28 | 37 | 14.5 | 25.7 | 0.00 | 0.00 | 0.00 | 74 | 1015.1 |
| 20260507193041 | 28 | 346 | 14.5 | 29.0 | 0.00 | 0.00 | 0.00 | 74 | 1015.1 |
| 20260507192533 | 28 | 39 | 16.1 | 29.0 | 0.00 | 0.00 | 0.00 | 74 | 1015.0 |
| 20260507192030 | 28 | 5 | 17.7 | 29.0 | 0.00 | 0.00 | 0.00 | 74 | 1015.1 |
| 20260507191549 | 29 | 36 | 14.5 | 32.2 | 0.00 | 0.00 | 0.00 | 73 | 1015.1 |
| 20260507191030 | 29 | 34 | 17.7 | 32.2 | 0.00 | 0.00 | 0.00 | 73 | 1015.1 |
| 20260507190530 | 29 | 19 | 17.7 | 27.4 | 0.00 | 0.00 | 0.00 | 73 | 1015.1 |
| 20260507190051 | 29 | 36 | 16.1 | 29.0 | 0.00 | 0.00 | 0.00 | 73 | 1015.1 |
| 20260507185529 | 29 | 9 | 17.7 | 29.0 | 0.00 | 0.00 | 0.00 | 73 | 1015.1 |
| 20260507185029 | 29 | 32 | 17.7 | 29.0 | 0.00 | 0.00 | 0.00 | 73 | 1015.2 |
| 20260507184541 | 29 | 352 | 17.7 | 29.0 | 0.00 | 0.00 | 0.00 | 73 | 1015.2 |
| 20260507184030 | 29 | 5 | 14.5 | 27.4 | 0.00 | 0.00 | 0.00 | 74 | 1015.2 |
| 20260507183532 | 29 | 9 | 16.1 | 27.4 | 0.00 | 0.00 | 0.00 | 73 | 1015.2 |
| 20260507183047 | 29 | 24 | 16.1 | 27.4 | 0.00 | 0.00 | 0.00 | 73 | 1015.2 |
| 20260507182532 | 29 | 14 | 17.7 | 27.4 | 0.00 | 0.00 | 0.00 | 73 | 1015.4 |
| 20260507182032 | 29 | 30 | 16.1 | 27.4 | 0.00 | 0.00 | 0.00 | 74 | 1015.3 |
| 20260507181551 | 29 | 32 | 14.5 | 27.4 | 0.00 | 0.00 | 0.00 | 73 | 1015.5 |
| 20260507181035 | 29 | 41 | 14.5 | 25.7 | 0.00 | 0.00 | 0.00 | 74 | 1015.6 |
| 20260507180529 | 29 | 15 | 16.1 | 25.7 | 0.00 | 0.00 | 0.00 | 75 | 1015.6 |
| 20260507180045 | 29 | 338 | 16.1 | 29.0 | 0.00 | 0.00 | 0.00 | 75 | 1015.6 |
| 20260507175532 | 29 | 20 | 17.7 | 29.0 | 0.00 | 0.00 | 0.00 | 74 | 1015.7 |
| 20260507175032 | 29 | 350 | 14.5 | 29.0 | 0.00 | 0.00 | 0.00 | 75 | 1015.8 |
| 20260507174554 | 29 | 15 | 16.1 | 30.6 | 0.00 | 0.00 | 0.00 | 74 | 1015.8 |
| 20260507174031 | 29 | 345 | 17.7 | 30.6 | 0.00 | 0.00 | 0.00 | 73 | 1015.7 |
| 20260507173532 | 29 | 338 | 17.7 | 32.2 | 0.00 | 0.00 | 0.00 | 73 | 1015.8 |
| 20260507173113 | 29 | 9 | 17.7 | 32.2 | 0.00 | 0.00 | 0.00 | 73 | 1015.8 |
| 20260507172533 | 29 | 49 | 14.5 | 27.4 | 0.00 | 0.00 | 0.00 | 73 | 1016.1 |
| 20260507172032 | 29 | 327 | 16.1 | 27.4 | 0.00 | 0.00 | 0.00 | 73 | 1016.2 |
| 20260507171549 | 29 | 22 | 17.7 | 27.4 | 0.00 | 0.00 | 0.00 | 73 | 1016.2 |
| 20260507171032 | 29 | 360 | 16.1 | 27.4 | 0.00 | 0.00 | 0.00 | 73 | 1016.3 |
| 20260507170533 | 29 | 17 | 16.1 | 27.4 | 0.00 | 0.00 | 0.00 | 73 | 1016.4 |
| 20260507170044 | 29 | 26 | 16.1 | 27.4 | 0.00 | 0.00 | 0.00 | 72 | 1016.5 |
| 20260507165532 | 29 | 12 | 16.1 | 32.2 | 0.00 | 0.00 | 0.00 | 73 | 1016.6 |
| 20260507165030 | 29 | 5 | 19.3 | 32.2 | 0.00 | 0.00 | 0.00 | 72 | 1016.6 |
| 20260507164554 | 29 | 49 | 16.1 | 27.4 | 0.00 | 0.00 | 0.00 | 73 | 1016.6 |
| 20260507164030 | 29 | 31 | 16.1 | 27.4 | 0.00 | 0.00 | 0.00 | 74 | 1016.6 |
| 20260507163529 | 29 | 15 | 17.7 | 27.4 | 0.00 | 0.00 | 0.00 | 73 | 1016.8 |
| 20260507163048 | 29 | 352 | 16.1 | 25.7 | 0.00 | 0.00 | 0.00 | 74 | 1016.9 |
| 20260507162532 | 29 | 360 | 16.1 | 25.7 | 0.00 | 0.00 | 0.00 | 73 | 1016.9 |
| 20260507162035 | 29 | 343 | 17.7 | 27.4 | 0.00 | 0.00 | 0.00 | 73 | 1017.0 |
| 20260507161603 | 29 | 38 | 17.7 | 27.4 | 0.00 | 0.00 | 0.00 | 74 | 1017.1 |
| 20260507161032 | 29 | 5 | 14.5 | 24.1 | 0.00 | 0.00 | 0.00 | 75 | 1017.1 |
| 20260507160533 | 29 | 360 | 16.1 | 25.7 | 0.00 | 0.00 | 0.00 | 75 | 1017.2 |
| 20260507160050 | 29 | 335 | 14.5 | 25.7 | 0.00 | 0.00 | 0.00 | 75 | 1017.2 |
| 20260507155532 | 29 | 18 | 17.7 | 25.7 | 0.00 | 0.00 | 0.00 | 74 | 1017.2 |
| 20260507155032 | 29 | 360 | 12.9 | 25.7 | 0.00 | 0.00 | 0.00 | 75 | 1017.2 |
| 20260507154550 | 29 | 30 | 14.5 | 25.7 | 0.00 | 0.00 | 0.00 | 76 | 1017.3 |
| 20260507154033 | 29 | 360 | 16.1 | 27.4 | 0.00 | 0.00 | 0.00 | 76 | 1017.2 |
| 20260507153533 | 29 | 32 | 14.5 | 27.4 | 0.00 | 0.00 | 0.00 | 76 | 1017.2 |
| 20260507153043 | 28 | 12 | 14.5 | 24.1 | 0.00 | 0.00 | 0.00 | 76 | 1017.3 |
| 20260507152530 | 28 | 352 | 14.5 | 24.1 | 0.00 | 0.00 | 0.00 | 76 | 1017.3 |
| 20260507152030 | 28 | 5 | 16.1 | 25.7 | 0.00 | 0.00 | 0.00 | 75 | 1017.3 |
| 20260507151546 | 29 | 331 | 16.1 | 25.7 | 0.00 | 0.00 | 0.00 | 75 | 1017.3 |
| 20260507151028 | 29 | 15 | 16.1 | 25.7 | 0.00 | 0.00 | 0.00 | 75 | 1017.3 |
| 20260507150533 | 29 | 10 | 14.5 | 27.4 | 0.00 | 0.00 | 0.00 | 74 | 1017.3 |
| 20260507150050 | 28 | 352 | 16.1 | 27.4 | 0.00 | 0.00 | 0.00 | 73 | 1017.2 |
| 20260507145529 | 28 | 49 | 14.5 | 25.7 | 0.00 | 0.00 | 0.00 | 73 | 1017.3 |
| 20260507145029 | 28 | 344 | 16.1 | 25.7 | 0.00 | 0.00 | 0.00 | 73 | 1017.3 |
| 20260507144548 | 28 | 11 | 16.1 | 25.7 | 0.00 | 0.00 | 0.00 | 74 | 1017.3 |
| 20260507144029 | 28 | 352 | 12.9 | 24.1 | 0.00 | 0.00 | 0.00 | 75 | 1017.2 |
| 20260507143529 | 28 | 22 | 14.5 | 24.1 | 0.00 | 0.00 | 0.00 | 75 | 1017.3 |
| 20260507143047 | 28 | 36 | 14.5 | 24.1 | 0.00 | 0.00 | 0.00 | 75 | 1017.3 |
| 20260507142529 | 28 | 20 | 14.5 | 24.1 | 0.00 | 0.00 | 0.00 | 76 | 1017.4 |
| 20260507142029 | 28 | 17 | 14.5 | 24.1 | 0.00 | 0.00 | 0.00 | 75 | 1017.5 |
| 20260507141551 | 28 | 5 | 14.5 | 25.7 | 0.00 | 0.00 | 0.00 | 75 | 1017.5 |
| 20260507141034 | 28 | 17 | 12.9 | 25.7 | 0.00 | 0.00 | 0.00 | 75 | 1017.5 |
| 20260507140530 | 28 | 21 | 16.1 | 25.7 | 0.00 | 0.00 | 0.00 | 75 | 1017.4 |
| 20260507140042 | 28 | 11 | 14.5 | 22.5 | 0.00 | 0.00 | 0.00 | 75 | 1017.4 |
| 20260507135530 | 28 | 17 | 12.9 | 22.5 | 0.00 | 0.00 | 0.00 | 75 | 1017.4 |
| 20260507135030 | 28 | 352 | 16.1 | 22.5 | 0.00 | 0.00 | 0.00 | 75 | 1017.4 |
| 20260507134545 | 28 | 20 | 14.5 | 20.9 | 0.00 | 0.00 | 0.00 | 75 | 1017.5 |
| 20260507134031 | 28 | 360 | 14.5 | 20.9 | 0.00 | 0.00 | 0.00 | 75 | 1017.5 |
| 20260507133534 | 28 | 5 | 12.9 | 20.9 | 0.00 | 0.00 | 0.00 | 75 | 1017.5 |
| 20260507133046 | 28 | 346 | 9.7 | 19.3 | 0.00 | 0.00 | 0.00 | 76 | 1017.5 |
| 20260507132534 | 28 | 21 | 9.7 | 19.3 | 0.00 | 0.00 | 0.00 | 76 | 1017.5 |
| 20260507132030 | 27 | 26 | 9.7 | 17.7 | 0.00 | 0.00 | 0.00 | 76 | 1017.4 |
| 20260507131542 | 27 | 352 | 9.7 | 17.7 | 0.00 | 0.00 | 0.00 | 76 | 1017.4 |
| 20260507131032 | 27 | 5 | 11.3 | 19.3 | 0.00 | 0.00 | 0.00 | 76 | 1017.4 |
| 20260507130532 | 27 | 352 | 11.3 | 19.3 | 0.00 | 0.00 | 0.00 | 76 | 1017.4 |
| 20260507130045 | 27 | 352 | 9.7 | 19.3 | 0.00 | 0.00 | 0.00 | 75 | 1017.4 |
| 20260507125532 | 27 | 26 | 11.3 | 17.7 | 0.00 | 0.00 | 0.00 | 75 | 1017.4 |
| 20260507125029 | 27 | 21 | 9.7 | 16.1 | 0.00 | 0.00 | 0.00 | 75 | 1017.3 |
| 20260507124543 | 27 | 360 | 11.3 | 17.7 | 0.00 | 0.00 | 0.00 | 74 | 1017.2 |
| 20260507124029 | 27 | 348 | 9.7 | 19.3 | 0.00 | 0.00 | 0.00 | 74 | 1017.2 |
| 20260507123531 | 27 | 349 | 12.9 | 19.3 | 0.00 | 0.00 | 0.00 | 73 | 1017.2 |
| 20260507123048 | 27 | 9 | 11.3 | 17.7 | 0.00 | 0.00 | 0.00 | 73 | 1017.1 |
| 20260507122530 | 27 | 322 | 11.3 | 16.1 | 0.00 | 0.00 | 0.00 | 74 | 1017.0 |
| 20260507122030 | 27 | 352 | 4.8 | 8.0 | 0.00 | 0.00 | 0.00 | 74 | 1016.9 |
| 20260507121545 | 27 | 332 | 1.6 | 11.3 | 0.00 | 0.00 | 0.00 | 75 | 1016.9 |
| 20260507121031 | 26 | 9 | 3.2 | 11.3 | 0.00 | 0.00 | 0.00 | 75 | 1016.7 |
| 20260507120529 | 26 | 105 | 0.0 | 8.0 | 0.00 | 0.00 | 0.00 | 76 | 1016.7 |
| 20260507120056 | 26 | 360 | 3.2 | 9.7 | 0.00 | 0.00 | 0.00 | 77 | 1016.7 |
| 20260507115530 | 26 | 101 | 3.2 | 9.7 | 0.00 | 0.00 | 0.00 | 77 | 1016.6 |
| 20260507115030 | 25 | 120 | 1.6 | 6.4 | 0.00 | 0.00 | 0.00 | 79 | 1016.6 |
| 20260507114544 | 25 | 69 | 1.6 | 8.0 | 0.00 | 0.00 | 0.00 | 79 | 1016.5 |
| 20260507114029 | 25 | 26 | 0.0 | 8.0 | 0.00 | 0.00 | 0.00 | 80 | 1016.4 |
| 20260507113529 | 25 | 20 | 3.2 | 8.0 | 0.00 | 0.00 | 0.00 | 81 | 1016.4 |
| 20260507113049 | 24 | 0 | 1.6 | 8.0 | 0.00 | 0.00 | 0.00 | 82 | 1016.3 |
| 20260507112529 | 24 | 5 | 1.6 | 6.4 | 0.00 | 0.00 | 0.00 | 82 | 1016.3 |
| 20260507112032 | 23 | 18 | 1.6 | 6.4 | 0.00 | 0.00 | 0.00 | 83 | 1016.2 |
| 20260507111543 | 23 | 0 | 0.0 | 6.4 | 0.00 | 0.00 | 0.00 | 83 | 1016.2 |
| 20260507111032 | 23 | 5 | 0.0 | 6.4 | 0.00 | 0.00 | 0.00 | 84 | 1016.3 |
| 20260507110530 | 23 | 0 | 0.0 | 6.4 | 0.00 | 0.00 | 0.00 | 84 | 1016.2 |
| 20260507110047 | 23 | 31 | 0.0 | 0.0 | 0.00 | 0.00 | 0.00 | 84 | 1016.2 |
| 20260507105532 | 22 | 0 | 0.0 | 4.8 | 0.00 | 0.00 | 0.00 | 84 | 1016.3 |
| 20260507105031 | 22 | 0 | 0.0 | 6.4 | 0.00 | 0.00 | 0.00 | 84 | 1016.2 |
| 20260507104545 | 22 | 30 | 1.6 | 6.4 | 0.00 | 0.00 | 0.00 | 84 | 1016.2 |
| 20260507104032 | 22 | 0 | 0.0 | 4.8 | 0.00 | 0.00 | 0.00 | 83 | 1016.2 |
| 20260507103529 | 22 | 0 | 0.0 | 4.8 | 0.00 | 0.00 | 0.00 | 83 | 1016.2 |
| 20260507103046 | 22 | 0 | 0.0 | 3.2 | 0.00 | 0.00 | 0.00 | 83 | 1016.2 |
| 20260507102531 | 22 | 0 | 0.0 | 1.6 | 0.00 | 0.00 | 0.00 | 83 | 1016.2 |
| 20260507102032 | 22 | 0 | 0.0 | 0.0 | 0.00 | 0.00 | 0.00 | 83 | 1016.2 |
| 20260507101542 | 22 | 0 | 0.0 | 3.2 | 0.00 | 0.00 | 0.00 | 83 | 1016.2 |
| 20260507101031 | 22 | 0 | 0.0 | 3.2 | 0.00 | 0.00 | 0.00 | 83 | 1016.1 |
| 20260507100530 | 22 | 0 | 0.0 | 4.8 | 0.00 | 0.00 | 0.00 | 83 | 1016.0 |
| 20260507100043 | 22 | 0 | 0.0 | 6.4 | 0.00 | 0.00 | 0.00 | 83 | 1015.9 |
| 20260507095532 | 22 | 0 | 0.0 | 8.0 | 0.00 | 0.00 | 0.00 | 83 | 1015.9 |
| 20260507095032 | 22 | 0 | 3.2 | 8.0 | 0.00 | 0.00 | 0.00 | 83 | 1015.8 |
| 20260507094553 | 22 | 0 | 0.0 | 4.8 | 0.00 | 0.00 | 0.00 | 83 | 1015.8 |
| 20260507094032 | 22 | 0 | 0.0 | 4.8 | 0.00 | 0.00 | 0.00 | 83 | 1015.7 |
| 20260507093531 | 22 | 69 | 0.0 | 4.8 | 0.00 | 0.00 | 0.00 | 83 | 1015.7 |
| 20260507093046 | 22 | 0 | 0.0 | 3.2 | 0.00 | 0.00 | 0.00 | 83 | 1015.6 |
| 20260507092550 | 22 | 0 | 0.0 | 3.2 | 0.00 | 0.00 | 0.00 | 83 | 1015.6 |
| 20260507092031 | 22 | 201 | 0.0 | 3.2 | 0.00 | 0.00 | 0.00 | 83 | 1015.6 |
| 20260507091546 | 22 | 0 | 0.0 | 4.8 | 0.00 | 0.00 | 0.00 | 83 | 1015.6 |
| 20260507091031 | 22 | 0 | 0.0 | 4.8 | 0.00 | 0.00 | 0.00 | 83 | 1015.6 |
| 20260507090530 | 22 | 92 | 1.6 | 4.8 | 0.00 | 0.00 | 0.00 | 83 | 1015.6 |
| 20260507090045 | 22 | 88 | 0.0 | 4.8 | 0.00 | 0.00 | 0.00 | 82 | 1015.7 |
| 20260507085529 | 22 | 101 | 0.0 | 6.4 | 0.00 | 0.00 | 0.00 | 82 | 1015.8 |
| 20260507085029 | 22 | 0 | 0.0 | 6.4 | 0.00 | 0.00 | 0.00 | 82 | 1015.9 |
| 20260507084542 | 22 | 0 | 0.0 | 6.4 | 0.00 | 0.00 | 0.00 | 82 | 1015.9 |
| 20260507084031 | 22 | 36 | 0.0 | 3.2 | 0.00 | 0.00 | 0.00 | 82 | 1016.0 |
| 20260507083532 | 22 | 0 | 0.0 | 0.0 | 0.00 | 0.00 | 0.00 | 82 | 1015.9 |
| 20260507083042 | 22 | 0 | 0.0 | 4.8 | 0.00 | 0.00 | 0.00 | 81 | 1015.9 |
| 20260507082528 | 23 | 0 | 0.0 | 4.8 | 0.00 | 0.00 | 0.00 | 81 | 1015.9 |
| 20260507082033 | 23 | 91 | 0.0 | 1.6 | 0.00 | 0.00 | 0.00 | 81 | 1015.9 |
| 20260507081548 | 23 | 0 | 0.0 | 3.2 | 0.00 | 0.00 | 0.00 | 81 | 1015.9 |
| 20260507081030 | 23 | 0 | 0.0 | 3.2 | 0.00 | 0.00 | 0.00 | 81 | 1015.8 |
| 20260507080535 | 23 | 0 | 0.0 | 1.6 | 0.00 | 0.00 | 0.00 | 81 | 1015.9 |
| 20260507080056 | 23 | 0 | 0.0 | 6.4 | 0.00 | 0.00 | 0.00 | 81 | 1015.8 |
| 20260507075532 | 23 | 0 | 0.0 | 6.4 | 0.00 | 0.00 | 0.00 | 80 | 1015.8 |
| 20260507075032 | 23 | 0 | 0.0 | 4.8 | 0.00 | 0.00 | 0.00 | 80 | 1015.9 |
| 20260507074548 | 23 | 58 | 0.0 | 4.8 | 0.00 | 0.00 | 0.00 | 80 | 1015.7 |
| 20260507074031 | 23 | 78 | 0.0 | 1.6 | 0.00 | 0.00 | 0.00 | 80 | 1015.8 |
| 20260507073532 | 23 | 0 | 0.0 | 3.2 | 0.00 | 0.00 | 0.00 | 80 | 1015.7 |
| 20260507073107 | 23 | 0 | 0.0 | 6.4 | 0.00 | 0.00 | 0.00 | 80 | 1015.8 |
| 20260507072532 | 23 | 0 | 0.0 | 9.7 | 0.00 | 0.00 | 0.00 | 80 | 1015.8 |
| 20260507072030 | 23 | 122 | 0.0 | 9.7 | 0.00 | 0.00 | 0.00 | 80 | 1015.8 |
| 20260507071546 | 23 | 360 | 4.8 | 11.3 | 0.00 | 0.00 | 0.00 | 80 | 1015.9 |
| 20260507071030 | 23 | 144 | 4.8 | 12.9 | 0.00 | 0.00 | 0.00 | 81 | 1015.9 |
| 20260507070531 | 23 | 360 | 4.8 | 12.9 | 0.00 | 0.00 | 0.00 | 81 | 1015.9 |
| 20260507070045 | 23 | 135 | 4.8 | 12.9 | 0.00 | 0.00 | 0.00 | 81 | 1015.9 |
| 20260507065530 | 23 | 360 | 4.8 | 9.7 | 0.00 | 0.00 | 0.00 | 81 | 1016.1 |
| 20260507065032 | 23 | 104 | 3.2 | 6.4 | 0.00 | 0.00 | 0.00 | 81 | 1016.1 |
| 20260507064601 | 23 | 111 | 0.0 | 6.4 | 0.00 | 0.00 | 0.00 | 81 | 1016.2 |
| 20260507064032 | 23 | 94 | 0.0 | 4.8 | 0.00 | 0.00 | 0.00 | 81 | 1016.2 |
| 20260507063530 | 23 | 82 | 0.0 | 3.2 | 0.00 | 0.00 | 0.00 | 81 | 1016.3 |
| 20260507063052 | 23 | 0 | 0.0 | 4.8 | 0.00 | 0.00 | 0.00 | 81 | 1016.4 |
| 20260507062531 | 23 | 0 | 0.0 | 4.8 | 0.00 | 0.00 | 0.00 | 81 | 1016.4 |
| 20260507062029 | 23 | 113 | 0.0 | 0.0 | 0.00 | 0.00 | 0.00 | 81 | 1016.4 |
| 20260507061549 | 23 | 0 | 0.0 | 3.2 | 0.00 | 0.00 | 0.00 | 80 | 1016.4 |
| 20260507061032 | 23 | 0 | 0.0 | 3.2 | 0.00 | 0.00 | 0.00 | 80 | 1016.5 |
| 20260507060532 | 23 | 0 | 0.0 | 6.4 | 0.00 | 0.00 | 0.00 | 80 | 1016.6 |
| 20260507060041 | 23 | 0 | 0.0 | 9.7 | 0.00 | 0.00 | 0.00 | 81 | 1016.6 |
| 20260507055532 | 23 | 360 | 1.6 | 9.7 | 0.00 | 0.00 | 0.00 | 81 | 1016.8 |
| 20260507055029 | 23 | 119 | 3.2 | 9.7 | 0.00 | 0.00 | 0.00 | 81 | 1016.8 |
| 20260507054546 | 24 | 117 | 3.2 | 8.0 | 0.00 | 0.00 | 0.00 | 81 | 1016.8 |
| 20260507054032 | 23 | 121 | 3.2 | 9.7 | 0.00 | 0.00 | 0.00 | 81 | 1016.8 |
| 20260507053532 | 24 | 360 | 3.2 | 9.7 | 0.00 | 0.00 | 0.00 | 81 | 1017.0 |
| 20260507053043 | 24 | 252 | 3.2 | 11.3 | 0.00 | 0.00 | 0.00 | 81 | 1017.1 |
| 20260507052529 | 24 | 108 | 3.2 | 11.3 | 0.00 | 0.00 | 0.00 | 81 | 1017.1 |
| 20260507052031 | 24 | 105 | 3.2 | 9.7 | 0.00 | 0.00 | 0.00 | 81 | 1017.1 |
| 20260507051545 | 24 | 104 | 1.6 | 6.4 | 0.00 | 0.00 | 0.00 | 81 | 1017.2 |
| 20260507051032 | 24 | 0 | 0.0 | 3.2 | 0.00 | 0.00 | 0.00 | 81 | 1017.3 |
| 20260507050530 | 24 | 0 | 0.0 | 3.2 | 0.00 | 0.00 | 0.00 | 81 | 1017.4 |
| 20260507050044 | 24 | 0 | 0.0 | 6.4 | 0.00 | 0.00 | 0.00 | 81 | 1017.4 |
| 20260507045530 | 24 | 0 | 0.0 | 6.4 | 0.00 | 0.00 | 0.00 | 81 | 1017.5 |
| 20260507045031 | 24 | 115 | 0.0 | 6.4 | 0.00 | 0.00 | 0.00 | 81 | 1017.5 |
| 20260507044550 | 24 | 28 | 0.0 | 9.7 | 0.00 | 0.00 | 0.00 | 81 | 1017.5 |
| 20260507044030 | 24 | 0 | 0.0 | 11.3 | 0.00 | 0.00 | 0.00 | 81 | 1017.6 |
| 20260507043529 | 25 | 120 | 6.4 | 11.3 | 0.00 | 0.00 | 0.00 | 82 | 1017.6 |
| 20260507043049 | 25 | 117 | 3.2 | 11.3 | 0.00 | 0.00 | 0.00 | 82 | 1017.6 |
| 20260507042529 | 25 | 108 | 3.2 | 11.3 | 0.00 | 0.00 | 0.00 | 82 | 1017.6 |
| 20260507042030 | 25 | 0 | 1.6 | 11.3 | 0.00 | 0.00 | 0.00 | 83 | 1017.7 |
| 20260507041548 | 25 | 113 | 4.8 | 11.3 | 0.00 | 0.00 | 0.00 | 83 | 1017.7 |
| 20260507041032 | 25 | 0 | 0.0 | 9.7 | 0.00 | 0.00 | 0.00 | 83 | 1017.7 |
| 20260507040530 | 25 | 0 | 0.0 | 9.7 | 0.00 | 0.00 | 0.00 | 83 | 1017.8 |
| 20260507040048 | 25 | 51 | 1.6 | 8.0 | 0.00 | 0.00 | 0.00 | 83 | 1017.8 |
| 20260507035529 | 25 | 23 | 1.6 | 11.3 | 0.00 | 0.00 | 0.00 | 83 | 1017.9 |
| 20260507035030 | 26 | 0 | 1.6 | 11.3 | 0.00 | 0.00 | 0.00 | 84 | 1017.9 |
| 20260507034554 | 26 | 69 | 1.6 | 9.7 | 0.00 | 0.00 | 0.00 | 84 | 1017.9 |
| 20260507034029 | 26 | 108 | 1.6 | 6.4 | 0.00 | 0.00 | 0.00 | 84 | 1017.9 |
| 20260507033529 | 26 | 0 | 0.0 | 6.4 | 0.00 | 0.00 | 0.00 | 84 | 1017.8 |
| 20260507033101 | 26 | 23 | 1.6 | 11.3 | 0.00 | 0.00 | 0.00 | 84 | 1017.9 |
| 20260507032531 | 26 | 82 | 1.6 | 11.3 | 0.00 | 0.00 | 0.00 | 84 | 1017.9 |
| 20260507032029 | 26 | 117 | 3.2 | 11.3 | 0.00 | 0.00 | 0.00 | 83 | 1017.9 |
| 20260507031548 | 26 | 111 | 3.2 | 12.9 | 0.00 | 0.00 | 0.00 | 83 | 1017.9 |
| 20260507031029 | 26 | 124 | 1.6 | 12.9 | 0.00 | 0.00 | 0.00 | 83 | 1017.9 |
| 20260507030531 | 26 | 75 | 3.2 | 12.9 | 0.00 | 0.00 | 0.00 | 83 | 1017.9 |
| 20260507030046 | 26 | 119 | 3.2 | 11.3 | 0.00 | 0.00 | 0.00 | 83 | 1018.0 |
| 20260507025531 | 26 | 111 | 6.4 | 11.3 | 0.00 | 0.00 | 0.00 | 83 | 1017.9 |
| 20260507025030 | 27 | 117 | 3.2 | 11.3 | 0.00 | 0.00 | 0.00 | 83 | 1017.9 |
| 20260507024554 | 27 | 136 | 4.8 | 11.3 | 0.00 | 0.00 | 0.00 | 83 | 1017.9 |
| 20260507024030 | 27 | 138 | 6.4 | 11.3 | 0.00 | 0.00 | 0.00 | 83 | 1017.8 |
| 20260507023529 | 27 | 0 | 4.8 | 11.3 | 0.00 | 0.00 | 0.00 | 83 | 1017.8 |
| 20260507023043 | 27 | 116 | 3.2 | 11.3 | 0.00 | 0.00 | 0.00 | 83 | 1017.8 |
| 20260507022532 | 27 | 146 | 4.8 | 11.3 | 0.00 | 0.00 | 0.00 | 83 | 1017.8 |
| 20260507022032 | 27 | 145 | 4.8 | 11.3 | 0.00 | 0.00 | 0.00 | 83 | 1017.8 |
| 20260507021543 | 27 | 233 | 1.6 | 4.8 | 0.00 | 0.00 | 0.00 | 83 | 1017.7 |
| 20260507021034 | 27 | 233 | 1.6 | 4.8 | 0.00 | 0.00 | 0.00 | 83 | 1017.7 |
| 20260507020530 | 27 | 0 | 1.6 | 4.8 | 0.00 | 0.00 | 0.00 | 83 | 1017.5 |
| 20260507020045 | 27 | 266 | 0.0 | 4.8 | 0.00 | 0.00 | 0.00 | 83 | 1017.6 |
| 20260507015532 | 27 | 0 | 0.0 | 4.8 | 0.00 | 0.00 | 0.00 | 83 | 1017.5 |
| 20260507015029 | 27 | 273 | 1.6 | 6.4 | 0.00 | 0.00 | 0.00 | 83 | 1017.5 |
| 20260507014542 | 27 | 273 | 0.0 | 6.4 | 0.00 | 0.00 | 0.00 | 83 | 1017.4 |
| 20260507014029 | 27 | 273 | 3.2 | 6.4 | 0.00 | 0.00 | 0.00 | 83 | 1017.3 |
| 20260507013532 | 27 | 248 | 3.2 | 9.7 | 0.00 | 0.00 | 0.00 | 83 | 1017.3 |
| 20260507013040 | 27 | 273 | 4.8 | 9.7 | 0.00 | 0.00 | 0.00 | 83 | 1017.2 |
| 20260507012530 | 27 | 360 | 3.2 | 9.7 | 0.00 | 0.00 | 0.00 | 83 | 1017.2 |
| 20260507012030 | 27 | 282 | 3.2 | 11.3 | 0.00 | 0.00 | 0.00 | 83 | 1017.2 |
| 20260507011545 | 27 | 278 | 3.2 | 11.3 | 0.00 | 0.00 | 0.00 | 83 | 1017.1 |
| 20260507011029 | 27 | 257 | 3.2 | 11.3 | 0.00 | 0.00 | 0.00 | 83 | 1017.1 |
| 20260507010533 | 27 | 248 | 4.8 | 12.9 | 0.00 | 0.00 | 0.00 | 83 | 1017.1 |
| 20260507010052 | 27 | 280 | 4.8 | 12.9 | 0.00 | 0.00 | 0.00 | 83 | 1017.1 |
| 20260507005530 | 27 | 360 | 3.2 | 11.3 | 0.00 | 0.00 | 0.00 | 83 | 1017.1 |
| 20260507005029 | 27 | 360 | 4.8 | 11.3 | 0.00 | 0.00 | 0.00 | 82 | 1017.1 |
| 20260507004544 | 27 | 360 | 4.8 | 11.3 | 0.00 | 0.00 | 0.00 | 82 | 1017.1 |
| 20260507004030 | 27 | 360 | 4.8 | 9.7 | 0.00 | 0.00 | 0.00 | 82 | 1017.1 |
| 20260507003530 | 27 | 360 | 4.8 | 9.7 | 0.00 | 0.00 | 0.00 | 82 | 1017.0 |
| 20260507003045 | 27 | 284 | 3.2 | 12.9 | 0.00 | 0.00 | 0.00 | 82 | 1017.0 |
| 20260507002529 | 27 | 360 | 4.8 | 12.9 | 0.00 | 0.00 | 0.00 | 82 | 1016.9 |
| 20260507002029 | 27 | 244 | 3.2 | 12.9 | 0.00 | 0.00 | 0.00 | 82 | 1016.9 |
| 20260507001605 | 27 | 360 | 6.4 | 14.5 | 0.00 | 0.00 | 0.00 | 82 | 1016.8 |
| 20260507001029 | 27 | 360 | 6.4 | 14.5 | 0.00 | 0.00 | 0.00 | 82 | 1016.8 |
| 20260507000530 | 27 | 289 | 6.4 | 14.5 | 0.00 | 0.00 | 0.00 | 82 | 1016.8 |
| 20260507000045 | 27 | 285 | 6.4 | 16.1 | 0.00 | 0.00 | 0.00 | 82 | 1016.8 |
| 20260506235531 | 27 | 360 | 6.4 | 16.1 | 0.00 | 0.00 | 0.00 | 82 | 1016.7 |
| 20260506235029 | 27 | 360 | 4.8 | 16.1 | 0.00 | 0.00 | 0.00 | 81 | 1016.7 |
| 20260506234556 | 27 | 267 | 6.4 | 16.1 | 0.00 | 0.00 | 0.00 | 81 | 1016.7 |
| 20260506234030 | 27 | 360 | 4.8 | 12.9 | 0.00 | 0.00 | 0.00 | 81 | 1016.5 |
| 20260506233530 | 27 | 360 | 6.4 | 14.5 | 0.00 | 0.00 | 0.00 | 81 | 1016.6 |
| 20260506233044 | 27 | 360 | 6.4 | 14.5 | 0.00 | 0.00 | 0.00 | 81 | 1016.6 |
| 20260506232530 | 27 | 273 | 4.8 | 16.1 | 0.00 | 0.00 | 0.00 | 80 | 1016.5 |
| 20260506232032 | 27 | 360 | 6.4 | 17.7 | 0.00 | 0.00 | 0.00 | 80 | 1016.5 |
| 20260506231545 | 27 | 360 | 6.4 | 17.7 | 0.00 | 0.00 | 0.00 | 80 | 1016.5 |
| 20260506231030 | 27 | 296 | 6.4 | 14.5 | 0.00 | 0.00 | 0.00 | 79 | 1016.4 |
| 20260506230529 | 28 | 292 | 6.4 | 12.9 | 0.00 | 0.00 | 0.00 | 79 | 1016.3 |
| 20260506230049 | 27 | 360 | 4.8 | 12.9 | 0.00 | 0.00 | 0.00 | 78 | 1016.3 |
| 20260506225531 | 28 | 360 | 6.4 | 12.9 | 0.00 | 0.00 | 0.00 | 78 | 1016.3 |
| 20260506225030 | 28 | 360 | 6.4 | 12.9 | 0.00 | 0.00 | 0.00 | 78 | 1016.2 |
| 20260506224603 | 28 | 360 | 6.4 | 14.5 | 0.00 | 0.00 | 0.00 | 77 | 1016.2 |
| 20260506224033 | 28 | 360 | 4.8 | 14.5 | 0.00 | 0.00 | 0.00 | 77 | 1016.1 |
| 20260506223529 | 28 | 360 | 4.8 | 12.9 | 0.00 | 0.00 | 0.00 | 76 | 1016.1 |
| 20260506223046 | 28 | 360 | 6.4 | 12.9 | 0.00 | 0.00 | 0.00 | 76 | 1015.9 |
| 20260506222530 | 28 | 360 | 6.4 | 12.9 | 0.00 | 0.00 | 0.00 | 76 | 1015.9 |
| 20260506222034 | 28 | 360 | 4.8 | 12.9 | 0.00 | 0.00 | 0.00 | 75 | 1015.9 |
| 20260506221545 | 28 | 275 | 3.2 | 12.9 | 0.00 | 0.00 | 0.00 | 75 | 1016.0 |
| 20260506221029 | 29 | 309 | 4.8 | 12.9 | 0.00 | 0.00 | 0.00 | 75 | 1015.9 |
| 20260506220530 | 29 | 360 | 4.8 | 12.9 | 0.00 | 0.00 | 0.00 | 75 | 1015.8 |
| 20260506220059 | 29 | 290 | 4.8 | 12.9 | 0.00 | 0.00 | 0.00 | 75 | 1015.7 |
| 20260506215529 | 29 | 327 | 3.2 | 12.9 | 0.00 | 0.00 | 0.00 | 74 | 1015.7 |
| 20260506215029 | 29 | 352 | 3.2 | 12.9 | 0.00 | 0.00 | 0.00 | 74 | 1015.7 |
| 20260506214542 | 30 | 308 | 3.2 | 9.7 | 0.00 | 0.00 | 0.00 | 74 | 1015.7 |
| 20260506214033 | 30 | 321 | 3.2 | 9.7 | 0.00 | 0.00 | 0.00 | 74 | 1015.7 |
| 20260506213529 | 30 | 332 | 4.8 | 9.7 | 0.00 | 0.00 | 0.00 | 74 | 1015.7 |
| 20260506213045 | 29 | 346 | 3.2 | 14.5 | 0.00 | 0.00 | 0.00 | 74 | 1015.7 |
| 20260506212530 | 29 | 328 | 8.0 | 14.5 | 0.00 | 0.00 | 0.00 | 74 | 1015.6 |
| 20260506212030 | 30 | 329 | 4.8 | 11.3 | 0.00 | 0.00 | 0.00 | 74 | 1015.6 |
| 20260506211553 | 30 | 360 | 4.8 | 14.5 | 0.00 | 0.00 | 0.00 | 74 | 1015.5 |